Location: Gälforsberget
(66.6500°N, 22.4167°E)
Time: 21:10:19
(UTC+00:00)

Cosmos 2322 Rocket - Pass Details

Date: 11 April 2026
Orbit: 832 x 849 km, 71.0° (Epoch: 11 May)

Event Time Altitude Azimuth Distance (km) Brightness Sun altitude
Rises 22:17:52 0° 275° (W) 3,385 5.5 -14.7°
Reaches altitude 10° 22:20:22 10° 280° (W) 2,452 4.8 -14.7°
Maximum altitude 22:25:53 56° 359° (N) 997 3.0 -14.8°
Drops below altitude 10° 22:31:26 10° 77° (ENE) 2,458 4.8 -14.8°
Sets 22:33:56 0° 82° (E) 3,395 5.5 -14.8°
